Regional Weather Roundup
Issued by NWS Green Bay, WI

Home | Current Version | Previous Version | Text Only | Print | Product List | Glossary On
Versions: 1 2 3 4 5 6 7 8 9 10 11 12 13 14 15 16 17 18 19 20 21 22 23 24 25 26 27 28 29 30 31 32 33 34 35 36 37 38 39 40 41 42 43 44 45 46 47 48 49 50
655
ASUS43 KGRB 210811
RWRGRB

NORTH-CENTRAL AND NORTHEAST WISCONSIN REGIONAL WEATHER ROUNDUP
NATIONAL WEATHER SERVICE GREEN BAY WI
200 AM CST TUE NOV 21 2017

WIZ005-009-010>012-018-019-210900-
NORTH CENTRAL WISCONSIN

CITY           SKY/WX    TMP DP  RH WIND       PRES   REMARKS
IRONWOOD       CLOUDY    37  27  67 W17G33    29.33R
MANITOWISH WTR CLOUDY    35  28  76 W16G22    29.33R
ARBOR VITAE    CLEAR     37  29  74 W12G21    29.34R
EAGLE RIVER    CLEAR     36  27  69 W14G20    29.32R
LAND O LAKES   MOCLDY    37  28  72 W7        29.33R
RHINELANDER    CLEAR     38  28  67 W16G25    29.35R
PHILLIPS       CLEAR     36  27  68 W15G23    29.37R
ANTIGO         CLEAR     37  28  70 W14       29.39R
TOMAHAWK       CLEAR     37  26  64 W12G18    29.38R
MERRILL        CLEAR     37  28  69 SW9       29.40S
$$

WIZ013-073-210900-
NORTHEAST WISCONSIN

CITY           SKY/WX    TMP DP  RH WIND       PRES   REMARKS
IRON MOUNTAIN  CLOUDY    41  27  57 SW9G20    29.31R
MARINETTE      CLEAR     44  30  57 SW8       29.40R
OCONTO         CLEAR     43  30  59 SW8       29.41S
$$

WIZ017-030-035>037-045-210900-
CENTRAL WISCONSIN

CITY           SKY/WX    TMP DP  RH WIND       PRES   REMARKS
MEDFORD        CLEAR     36  27  69 W13G18    29.41R
WAUSAU         CLEAR     40  27  59 W14       29.41R
MOSINEE        CLEAR     39  28  65 SW14G22   29.44R
MARSHFIELD     CLEAR     38  26  62 SW13      29.45R
WISC RAPIDS    CLEAR     42  27  55 W10G20    29.49R
STEVENS POINT  CLEAR     41  26  55 SW10      29.45S
WAUPACA        PTCLDY    45  29  55 SW10      29.47R
SHAWANO        CLEAR     45  29  54 SW8       29.41S
CLINTONVILLE   CLEAR     43  27  52 SW9       29.44R
WAUTOMA        PTCLDY    44  28  53 SW12      29.49S
$$

WIZ038-039-048-051-210900-
FOX VALLEY

CITY           SKY/WX    TMP DP  RH WIND       PRES   REMARKS
NWS GREEN BAY  PTCLDY    42  33  70 SW10      29.45R
APPLETON       PTCLDY    41  28  60 SW12      29.46R
OSHKOSH        CLOUDY    44  31  60 SW8       29.48S
FOND DU LAC    CLOUDY    44  30  57 SW10      29.51R
$$

WIZ022-050-052-210900-
EAST CENTRAL WISCONSIN

CITY           SKY/WX    TMP DP  RH WIND       PRES   REMARKS
EPHRAIM        FAIR      46  32  59 SW13G25   29.37S
WASHINGTON ISL FAIR      45  35  69 SW17G24   29.36S
STURGEON BAY   CLOUDY    46  31  55 SW15      29.41S
MANITOWOC      CLOUDY    48  32  53 SW13G22   29.48R
SHEBOYGAN      MOCLDY    47  33  58 SW15G26   29.50R
$$

LMZ563-521-522-541>543-210900-
LAKESHORE

STATION/POSITION TIME  TEMP    WIND        PRES    VSBY  WAVE
                       AIR SEA DIR/SP/G                  HT/PER
                 (UTC) (F)     (DEG/KT/KT) (MB)    (MI)  (FT/S)
SHEBOYGAN LKSHOR 0800   49     240/ 20/ 23  999.0R
KEWAUNEE LKSHORE 0748   48     240/ 11/ 17  996.6R
NORTHPORT PIER   0740   48     230/ 10/ 20  994.6S
N MID LAKE BUOY  0750   48 48  220/ 23/ 27  994.6R        10/ 8
SISTER BAY LKSHO 0804   48     230/ 19/ 25   N/A
MENOMINEE LKSHOR 0748   44     210/ 11/ 19  995.2R
$$




USA.gov is the U.S. government's official web portal to all federal, state and local government web resources and services.